Location: ??????????
(44.2167°N, 135.5333°E)
Time: 13:39:46
(UTC+00:00)

Cosmos 1833 Rocket - Pass Details

Date: 15 June 2025
Orbit: 832 x 837 km, 71.0° (Epoch: 15 July)

Event Time Altitude Azimuth Distance (km) Brightness Sun altitude
Rises 16:30:39 0° 329° (NNW) 3,391 6.4 -19.2°
Reaches altitude 10° 16:33:11 10° 323° (NW) 2,452 5.5 -19.1°
Maximum altitude 16:38:29 45° 253° (WSW) 1,133 3.1 -18.7°
Enters shadow 16:40:20 33° 208° (SSW) 1,362 3.2 -18.5°
